IW3HBX-3 Weather Reports


time (UTC)temp
F
wind
direction
speed
knots
gust
knots
rain 1hr
in
rain 24hr
in
rain mn
in
humidity
%
barometer
mb
20260506230545 58 72 0.0 0.0 0.00 0.18 0.00 94 1011.6
20260506230044 58 72 0.0 0.9 0.00 0.18 0.00 94 1011.5
20260506225544 58 61 0.0 0.0 0.00 0.18 0.00 94 1011.5
20260506225044 58 61 0.0 0.0 0.00 0.18 0.00 94 1011.6
20260506224543 58 61 0.0 0.9 0.00 0.18 0.00 93 1011.5
20260506224043 58 61 0.9 0.9 0.00 0.18 0.00 93 1011.5
20260506223542 58 61 2.6 3.5 0.00 0.18 0.00 93 1011.5
20260506223042 58 56 0.0 0.9 0.00 0.18 0.00 93 1011.5
20260506222541 58 56 0.0 0.0 0.00 0.18 0.00 93 1011.5
20260506222041 58 60 0.0 0.9 0.00 0.18 0.00 93 1011.6
20260506221541 58 56 0.0 0.0 0.00 0.18 0.00 93 1011.6
20260506221040 58 56 0.0 0.0 0.00 0.18 0.00 93 1011.6
20260506220540 58 56 0.0 0.0 0.00 0.18 0.00 93 1011.5
20260506220039 58 56 0.0 0.0 0.00 0.18 0.00 93 1011.4
20260506215539 58 63 0.0 0.0 0.00 0.18 0.18 93 1011.4
20260506214538 58 67 0.0 0.9 0.00 0.18 0.18 93 1011.4
20260506214038 59 72 0.0 0.0 0.00 0.18 0.18 92 1011.3
20260506213537 59 72 0.0 0.0 0.00 0.18 0.18 92 1011.3
20260506213037 59 72 0.0 0.0 0.00 0.18 0.18 92 1011.4
20260506212537 59 70 0.0 0.9 0.00 0.18 0.18 92 1011.4
20260506211536 59 70 0.0 0.9 0.00 0.18 0.18 92 1011.5
20260506211035 59 70 0.0 1.7 0.00 0.18 0.18 92 1011.4
20260506210535 59 70 0.0 0.9 0.00 0.18 0.18 92 1011.3
20260506210034 59 70 0.0 0.9 0.00 0.18 0.18 92 1011.3
20260506205534 59 70 0.0 1.7 0.00 0.18 0.18 91 1011.3
20260506204533 60 73 1.7 2.6 0.00 0.18 0.18 91 1011.2
20260506204033 60 76 1.7 3.5 0.00 0.18 0.18 91 1011.4
20260506203532 60 69 0.9 1.7 0.00 0.18 0.18 91 1011.4
20260506203032 60 69 0.0 0.9 0.00 0.18 0.18 92 1011.3
20260506202532 60 69 0.9 2.6 0.00 0.18 0.18 91 1011.3
20260506202031 60 73 0.9 2.6 0.00 0.18 0.18 91 1011.2
20260506201531 60 81 0.9 2.6 0.00 0.18 0.18 92 1011.2
20260506201030 60 76 1.7 2.6 0.00 0.18 0.18 92 1011.1
20260506200530 60 294 0.0 0.9 0.00 0.18 0.18 92 1011.1
20260506200029 60 45 0.0 0.9 0.00 0.18 0.18 92 1011.0
20260506195529 60 42 0.9 1.7 0.00 0.18 0.18 92 1010.9
20260506194528 60 62 0.9 1.7 0.00 0.18 0.18 92 1010.9
20260506194028 60 67 0.0 0.9 0.00 0.18 0.18 92 1010.8
20260506193527 60 66 0.0 0.9 0.00 0.18 0.18 92 1010.8
20260506193027 61 70 0.0 0.9 0.00 0.18 0.18 92 1010.8
20260506192526 61 71 1.7 4.3 0.00 0.18 0.18 92 1010.7
20260506192026 61 72 0.0 0.9 0.00 0.18 0.18 92 1010.7
20260506191526 61 71 0.0 1.7 0.00 0.18 0.18 92 1010.7
20260506191025 61 76 1.7 2.6 0.00 0.18 0.18 92 1010.7
20260506190525 61 67 1.7 3.5 0.00 0.18 0.18 92 1010.7
20260506190024 61 69 0.0 0.9 0.00 0.18 0.18 91 1010.6
20260506185524 61 66 0.9 2.6 0.00 0.18 0.18 91 1010.5
20260506185024 62 78 1.7 2.6 0.00 0.18 0.18 91 1010.4
20260506184523 62 77 0.9 1.7 0.00 0.18 0.18 91 1010.5
20260506184023 62 57 3.5 3.5 0.00 0.18 0.18 90 1010.3
20260506183522 62 65 3.5 4.3 0.00 0.18 0.18 90 1010.2
20260506183023 62 64 4.3 5.2 0.00 0.18 0.18 90 1010.2
20260506182522 62 68 1.7 2.6 0.00 0.18 0.18 90 1010.2
20260506182021 62 59 0.0 0.9 0.00 0.18 0.18 90 1010.4
20260506181521 63 62 0.0 0.9 0.00 0.18 0.18 90 1010.3
20260506181020 63 63 0.0 0.9 0.00 0.18 0.18 90 1010.3
20260506180520 63 64 0.0 0.9 0.00 0.18 0.18 89 1010.3
20260506180019 63 64 0.0 0.9 0.00 0.18 0.18 89 1010.1
20260506175519 63 63 0.0 1.7 0.00 0.18 0.18 89 1010.1
20260506175019 63 64 0.0 0.9 0.00 0.18 0.18 89 1010.0
20260506174518 63 75 1.7 3.5 0.00 0.18 0.18 88 1010.0
20260506174018 63 63 0.0 1.7 0.00 0.18 0.18 88 1009.8
20260506173517 63 75 0.9 2.6 0.00 0.18 0.18 88 1009.8
20260506173018 63 76 2.6 3.5 0.00 0.18 0.18 87 1009.9
20260506172517 63 77 0.9 2.6 0.00 0.18 0.18 87 1009.8
20260506171516 63 57 0.0 0.9 0.00 0.18 0.18 87 1009.9
20260506171015 63 71 0.0 0.9 0.00 0.18 0.18 87 1009.8
20260506170515 63 76 0.0 0.9 0.00 0.18 0.18 87 1009.8
20260506170015 63 76 0.0 0.9 0.00 0.18 0.18 87 1009.7
20260506165514 63 76 0.9 1.7 0.00 0.18 0.18 86 1009.8
20260506165014 63 78 0.0 0.9 0.00 0.18 0.18 86 1009.8
20260506164513 63 72 1.7 2.6 0.00 0.18 0.18 85 1009.7
20260506164013 63 79 0.0 0.9 0.00 0.18 0.18 85 1009.8
20260506163512 63 79 0.0 0.9 0.00 0.18 0.18 85 1009.8
20260506163012 63 79 1.7 2.6 0.00 0.18 0.18 85 1010.0
20260506162512 63 72 0.0 2.6 0.00 0.18 0.18 84 1010.0
20260506162011 64 65 0.0 0.9 0.00 0.18 0.18 84 1009.9
20260506161511 64 65 0.9 0.9 0.00 0.18 0.18 86 1010.1
20260506161010 64 87 0.0 0.9 0.00 0.18 0.18 87 1009.9
20260506160510 64 88 0.0 1.7 0.00 0.18 0.18 88 1009.9
20260506160010 64 88 0.9 0.9 0.00 0.18 0.18 88 1009.8
20260506155509 64 79 1.7 3.5 0.00 0.18 0.18 88 1009.9
20260506155009 64 69 0.0 2.6 0.00 0.18 0.18 88 1010.0
20260506154508 63 65 2.6 4.3 0.00 0.18 0.18 89 1009.9
20260506154008 63 56 0.9 2.6 0.00 0.18 0.18 88 1009.9
20260506153507 64 76 0.0 0.0 0.00 0.18 0.18 88 1009.9
20260506153007 64 78 0.0 0.9 0.00 0.18 0.18 89 1009.9
20260506152507 63 78 0.0 0.9 0.00 0.18 0.18 89 1010.0
20260506152006 63 89 1.7 2.6 0.00 0.18 0.18 89 1009.8
20260506151506 63 101 0.0 1.7 0.00 0.18 0.18 89 1009.9
20260506151006 63 75 1.7 3.5 0.00 0.18 0.18 89 1009.9
20260506150506 63 75 2.6 3.5 0.00 0.18 0.18 89 1009.9
20260506150006 63 62 0.0 0.9 0.00 0.18 0.18 89 1010.0
20260506145506 63 62 0.0 0.9 0.00 0.18 0.18 90 1010.1
20260506145006 63 74 1.7 1.7 0.00 0.18 0.18 91 1010.1
20260506144506 63 74 1.7 2.6 0.00 0.18 0.18 90 1010.1
20260506144006 63 66 0.0 0.9 0.01 0.18 0.18 91 1010.1
20260506143505 62 66 0.0 1.7 0.01 0.18 0.18 91 1010.1
20260506143005 62 67 0.9 2.6 0.03 0.18 0.18 91 1010.1
20260506142505 62 79 0.0 2.6 0.04 0.18 0.18 92 1010.0
20260506142005 62 83 0.9 2.6 0.04 0.18 0.18 92 1010.0
20260506141505 62 74 2.6 4.3 0.06 0.18 0.18 92 1010.0
20260506141005 62 75 1.7 3.5 0.07 0.18 0.18 93 1010.0
20260506140505 62 69 0.0 5.2 0.11 0.18 0.18 93 1010.1
20260506140005 61 82 1.7 4.3 0.12 0.20 0.18 94 1010.1
20260506135505 61 68 0.0 0.9 0.12 0.20 0.18 94 1010.1
20260506135005 61 68 0.0 0.9 0.12 0.20 0.18 94 1010.2
20260506134505 61 82 0.0 2.6 0.12 0.20 0.18 93 1010.3
20260506133505 61 76 0.9 2.6 0.11 0.18 0.17 93 1010.5
20260506133005 61 79 1.7 2.6 0.09 0.17 0.15 92 1010.5
20260506132505 61 90 1.7 3.5 0.07 0.15 0.14 92 1010.5
20260506132005 61 76 1.7 4.3 0.07 0.15 0.14 92 1010.6
20260506131505 62 86 1.7 4.3 0.06 0.14 0.12 91 1010.6
20260506131005 62 97 0.9 2.6 0.04 0.12 0.11 91 1010.6
20260506130505 63 81 1.7 4.3 0.01 0.09 0.07 88 1010.6
20260506130014 63 69 1.7 3.5 0.00 0.07 0.06 86 1010.7
20260506130006 63 69 1.7 3.5 0.00 0.07 0.06 86 1010.7
20260506125505 63 109 0.0 1.7 0.00 0.07 0.06 87 1010.6
20260506125005 63 129 0.0 0.9 0.00 0.07 0.06 87 1010.7
20260506124505 63 102 0.0 0.9 0.00 0.07 0.06 87 1010.6
20260506124005 64 76 2.6 3.5 0.00 0.07 0.06 85 1010.7
20260506123505 64 107 0.9 2.6 0.00 0.09 0.06 83 1010.7
20260506123005 64 81 0.0 1.7 0.00 0.09 0.06 83 1010.7
20260506122505 64 91 1.7 5.2 0.00 0.09 0.06 81 1010.8
20260506122005 64 81 0.9 2.6 0.00 0.09 0.06 82 1010.8
20260506121504 65 84 1.7 3.5 0.00 0.09 0.06 81 1010.7
20260506121004 64 78 1.7 3.5 0.00 0.09 0.06 82 1010.7
20260506120504 64 69 1.7 4.3 0.00 0.09 0.06 83 1010.8
20260506120004 64 71 3.5 5.2 0.00 0.09 0.06 82 1010.8
20260506115504 64 70 1.7 4.3 0.00 0.09 0.06 83 1011.0
20260506115004 63 85 0.9 2.6 0.00 0.09 0.06 83 1011.0
20260506114504 64 80 1.7 4.3 0.00 0.09 0.06 83 1011.1
20260506114004 64 70 1.7 2.6 0.00 0.09 0.06 82 1011.1
20260506113504 63 70 1.7 3.5 0.00 0.09 0.06 83 1011.0
20260506113004 63 73 0.9 0.9 0.00 0.09 0.06 83 1011.2
20260506112504 63 70 0.9 2.6 0.00 0.09 0.06 83 1011.3
20260506112004 63 82 0.9 2.6 0.00 0.09 0.06 85 1011.3
20260506111503 63 62 0.0 0.9 0.00 0.09 0.06 84 1011.4
20260506111003 63 111 0.0 0.9 0.00 0.09 0.06 84 1011.4
20260506110503 62 105 0.0 1.7 0.01 0.09 0.06 86 1011.5
20260506110003 62 16 0.9 1.7 0.01 0.09 0.06 88 1011.4
20260506105503 62 95 0.9 2.6 0.01 0.09 0.06 88 1011.5
20260506105003 62 88 0.0 0.9 0.01 0.09 0.06 88 1011.5
20260506104503 62 59 0.0 1.7 0.01 0.09 0.06 87 1011.6
20260506104206 62 83 1.7 2.6 0.03 0.09 0.06 87 1011.6
20260506104003 62 83 1.7 2.6 0.03 0.09 0.06 87 1011.6
20260506103630 62 72 0.0 0.9 0.03 0.09 0.06 86 1011.6
20260506103503 62 72 0.0 0.9 0.03 0.09 0.06 86 1011.6
20260506103003 62 5 0.9 1.7 0.03 0.09 0.06 86 1011.7
20260506102503 62 79 0.9 0.9 0.03 0.09 0.06 86 1011.7
20260506102328 62 62 0.9 1.7 0.03 0.09 0.06 88 1011.6
20260506102003 62 62 0.9 1.7 0.03 0.09 0.06 88 1011.6
20260506101502 62 83 0.0 0.9 0.03 0.09 0.06 89 1011.7
20260506101002 62 134 0.0 0.0 0.03 0.09 0.06 90 1011.8
20260506100502 62 134 0.0 0.9 0.01 0.07 0.04 89 1011.8
20260506100002 62 164 0.0 0.9 0.01 0.07 0.04 87 1011.7
20260506095600 62 175 0.0 0.9 0.01 0.07 0.04 88 1011.8
20260506095502 62 175 0.0 0.9 0.01 0.07 0.04 88 1011.8
20260506095002 62 178 0.0 0.0 0.01 0.07 0.04 87 1011.7
20260506094502 63 178 0.0 0.9 0.01 0.09 0.04 86 1011.8
20260506094003 63 178 0.0 0.0 0.00 0.07 0.03 85 1011.7
20260506093503 63 178 0.0 0.0 0.00 0.07 0.03 84 1011.7
20260506093003 64 174 0.0 0.0 0.00 0.07 0.03 82 1011.7
20260506092503 64 184 0.0 0.9 0.00 0.09 0.03 80 1011.7
20260506091503 64 190 0.0 0.0 0.00 0.09 0.03 81 1011.6
20260506091003 64 190 0.0 0.0 0.00 0.09 0.03 81 1011.7
20260506090503 65 126 0.0 0.9 0.00 0.09 0.03 80 1011.7
20260506090003 65 190 0.0 0.0 0.00 0.09 0.03 77 1011.6
20260506085503 65 190 0.0 0.0 0.00 0.09 0.03 79 1011.5
20260506085003 65 190 0.0 0.0 0.00 0.09 0.03 79 1011.4
20260506084503 64 190 0.0 0.0 0.00 0.09 0.03 80 1011.4
20260506083504 63 192 0.0 0.0 0.00 0.09 0.03 83 1011.3
20260506083004 63 192 0.0 1.7 0.00 0.09 0.03 85 1011.3
20260506082504 63 246 0.0 0.0 0.00 0.09 0.03 84 1011.4
20260506081504 63 52 0.0 0.0 0.00 0.09 0.03 87 1011.3
20260506081004 63 48 0.0 0.0 0.00 0.09 0.03 89 1011.3
20260506080504 62 48 0.0 0.0 0.00 0.09 0.03 91 1011.3
20260506073504 60 316 0.0 0.0 0.00 0.09 0.03 93 1011.5
20260506073005 60 316 0.0 0.9 0.00 0.09 0.03 93 1011.4
20260506072505 60 315 0.0 0.0 0.00 0.09 0.03 93 1011.5
20260506072005 59 306 0.0 0.0 0.00 0.09 0.03 93 1011.5
20260506071505 59 306 0.0 0.0 0.00 0.09 0.03 93 1011.5
20260506071005 59 204 0.0 0.0 0.00 0.09 0.03 94 1011.6
20260506070505 59 204 0.0 0.0 0.00 0.09 0.03 94 1011.6
20260506062505 58 62 0.0 0.0 0.01 0.09 0.03 94 1011.5
20260506062231 58 62 0.0 0.9 0.01 0.09 0.03 94 1011.4
20260506062005 58 62 0.0 0.9 0.01 0.09 0.03 94 1011.4
20260506061504 58 62 0.0 0.9 0.01 0.09 0.03 95 1011.5
20260506061005 58 62 0.0 0.9 0.01 0.09 0.03 95 1011.4
20260506060505 58 62 0.0 0.0 0.01 0.09 0.03 95 1011.3
20260506051005 57 77 0.0 0.9 0.01 0.07 0.01 94 1011.8
20260506050505 57 76 0.0 0.0 0.01 0.07 0.01 94 1011.7
20260506045004 56 77 0.0 0.0 0.00 0.06 0.00 94 1011.7
20260506044504 56 72 0.0 0.0 0.00 0.06 0.00 94 1011.7
20260506044004 56 72 0.0 0.9 0.00 0.06 0.00 94 1011.6
20260506043504 56 72 0.0 0.9 0.00 0.06 0.00 94 1011.7
20260506043004 56 72 0.9 3.5 0.00 0.06 0.00 94 1011.4
20260506042504 56 64 1.7 3.5 0.00 0.06 0.00 94 1011.3
20260506042004 56 60 0.9 1.7 0.00 0.06 0.00 94 1011.3
20260506041504 56 68 0.9 2.6 0.00 0.06 0.00 94 1011.4
20260506041004 56 72 0.9 2.6 0.00 0.06 0.00 94 1011.3
20260506040504 56 71 0.0 0.9 0.00 0.06 0.00 94 1011.2
20260506040004 56 70 1.7 2.6 0.00 0.06 0.00 94 1011.1
20260506035504 56 73 0.9 1.7 0.00 0.06 0.00 94 1011.3
20260506035004 56 73 1.7 3.5 0.00 0.06 0.00 94 1011.3
20260506034504 56 73 0.9 2.6 0.00 0.06 0.00 94 1011.4
20260506034004 56 74 0.0 1.7 0.00 0.06 0.00 94 1011.5
20260506033504 56 75 1.7 4.3 0.00 0.06 0.00 94 1011.6
20260506033005 56 72 0.9 2.6 0.00 0.06 0.00 94 1011.7
20260506032505 56 77 0.0 0.0 0.00 0.06 0.00 94 1011.8
20260506032005 56 77 0.9 3.5 0.00 0.06 0.00 94 1011.9
20260506031505 56 72 1.7 3.5 0.00 0.06 0.00 94 1011.8
20260506031005 56 72 0.9 1.7 0.00 0.06 0.00 94 1011.7
20260506030505 55 77 0.9 1.7 0.00 0.06 0.00 94 1011.7
20260506030005 55 66 1.7 3.5 0.00 0.06 0.00 94 1011.8
20260506025505 55 74 0.0 3.5 0.00 0.06 0.00 94 1011.9
20260506025005 55 68 1.7 2.6 0.00 0.06 0.00 94 1012.0
20260506024505 55 67 0.0 0.9 0.00 0.06 0.00 94 1012.0
20260506024005 55 48 0.0 0.9 0.00 0.06 0.00 94 1012.0
20260506023505 55 27 0.9 0.9 0.00 0.06 0.00 94 1012.0
20260506023005 55 27 0.0 1.7 0.00 0.06 0.00 94 1012.0
20260506022506 55 22 0.0 0.9 0.00 0.06 0.00 94 1012.1
20260506022006 55 23 0.0 1.7 0.00 0.06 0.00 94 1012.1
20260506021506 55 21 0.0 0.9 0.00 0.06 0.00 94 1012.0
20260506021006 55 20 0.9 1.7 0.00 0.06 0.00 94 1012.1
20260506020506 55 23 0.0 0.9 0.00 0.06 0.00 94 1012.1
20260506020006 55 24 0.0 0.9 0.00 0.06 0.00 94 1012.4
20260506015506 55 24 0.0 0.0 0.00 0.06 0.00 94 1012.4
20260506015006 55 23 0.0 0.9 0.00 0.06 0.00 94 1012.4
20260506014506 55 23 0.0 0.9 0.00 0.06 0.00 94 1012.5
20260506014006 55 23 0.0 0.0 0.00 0.06 0.00 94 1012.5
20260506013506 55 23 0.9 0.9 0.00 0.06 0.00 94 1012.6
20260506012506 55 23 0.0 0.0 0.00 0.06 0.00 94 1012.5
20260506012007 55 23 0.0 0.0 0.00 0.06 0.00 94 1012.5
20260506011506 55 23 0.0 0.0 0.00 0.06 0.00 94 1012.6
20260506011006 55 23 0.0 0.0 0.00 0.06 0.00 94 1012.6
20260506010505 55 23 0.0 0.9 0.00 0.06 0.00 94 1012.6
20260506005504 55 23 0.9 0.9 0.00 0.06 0.00 94 1012.6
20260506005004 55 23 0.9 1.7 0.00 0.06 0.00 94 1012.6
20260506004504 55 23 0.0 0.0 0.00 0.06 0.00 94 1012.6
20260506004003 55 23 0.0 0.0 0.00 0.06 0.00 94 1012.6
20260506003503 55 23 0.0 0.0 0.00 0.06 0.00 94 1012.7
20260506003003 55 23 0.0 0.0 0.00 0.06 0.00 94 1012.7
20260506002503 55 23 0.0 0.0 0.00 0.06 0.00 94 1012.8
20260506002003 56 23 0.0 0.0 0.00 0.06 0.00 94 1012.7
20260506001503 56 23 0.0 0.0 0.00 0.06 0.00 94 1012.7
20260506001003 56 23 0.0 0.9 0.00 0.06 0.00 94 1012.6
20260506000503 56 23 0.0 0.0 0.00 0.06 0.00 94 1012.6
20260506000003 56 23 0.0 0.9 0.00 0.06 0.00 94 1012.6
20260505235503 56 23 0.0 0.9 0.00 0.06 0.00 93 1012.7
20260505235002 56 23 0.0 1.7 0.00 0.06 0.00 93 1012.7
20260505234502 56 23 0.0 1.7 0.00 0.06 0.00 93 1012.7
20260505234002 57 23 0.9 1.7 0.00 0.06 0.00 93 1012.7
20260505233502 57 32 0.9 1.7 0.00 0.06 0.00 93 1012.8
20260505233002 57 24 0.9 1.7 0.00 0.06 0.00 93 1012.9
20260505232502 57 52 0.9 0.9 0.00 0.06 0.00 93 1012.9
20260505232002 57 78 0.0 1.7 0.00 0.06 0.00 93 1013.1
20260505231502 57 71 0.0 1.7 0.00 0.06 0.00 93 1013.0
20260505231002 57 66 0.0 1.7 0.00 0.06 0.00 92 1013.2